Location: Newark
(35.2672°N, 80.7344°W)
Time: 07:54:37
(UTC+00:00)

Tiros 1 - Pass Details

Date: 28 January 2020
Orbit: 631 x 664 km, 48.4° (Epoch: 17 February)

Event Time Altitude Azimuth Distance (km) Brightness Sun altitude
Rises 15:20:55 0° 209° (SSW) 2,905 10.8 27.7°
Reaches altitude 10° 15:23:22 10° 200° (SSW) 2,003 10.2 28.0°
Maximum altitude 15:27:33 35° 135° (SE) 1,028 10.6 28.5°
Drops below altitude 10° 15:31:48 10° 70° (ENE) 2,029 10.0 29.0°
Sets 15:34:17 0° 61° (ENE) 2,947 10.6 29.2°
